Home > Weather > Nadiad > Past weeks

Flag for India Past Weather in Nadiad, Gujarat, India — Yesterday and Last 2 Weeks

Now
95 °F

Scattered clouds.


Feels Like: 105 °F
Forecast: 86 / 108 °F
Wind: 12 mph from West

Location: Ahmadabad Airport

Current Time: May 31, 2016 at 11:27:30 AM

Latest Report: May 31, 2016 at 10:30 AM


Visibility: 4 mi

Pressure: 29.74 "Hg

Humidity: 50%

Dew Point: 73 °F

Location of NadiadLocation

Past Weather in Nadiad — Graph

°F

Nadiad Temperature Yesterday

Maximum temperature yesterday: 109 °F (at 3:30 PM)
Minimum temperature yesterday: 84 °F (at 6:00 AM)
Average temperature yesterday: 94 °F

High & Low Weather Summary for the Past Weeks

 TemperatureHumidityPressure
High122 °F (May 18, 4:00 PM)70% (May 21, 7:30 AM)29.77 "Hg (May 21, 7:30 AM)
Low84 °F (May 22, 6:00 AM)9% (May 19, 5:30 PM)29.42 "Hg (May 18, 4:00 PM)
Average97 °F46%29.62 "Hg
* Reported May 16 9:30 AM — May 31 10:00 AM, Nadiad, Weather by CustomWeather, © 2016

Note: Actual official high and low records may vary slightly from our data, if they occured in-between our weather recording intervals... More about our weather records

Advertising

Nadiad Weather History for the Previous 24 Hours

Scroll right to see more
 ConditionsComfort  
Time TempWeatherWind HumidityBarometerVisibility
10:00 AM
Tue, May 31
93 °FScattered clouds.9 mph53%29.77 "Hg3 mi
9:30 AM91 °FScattered clouds.7 mph56%29.77 "Hg3 mi
9:00 AM91 °FScattered clouds.12 mph56%29.77 "Hg3 mi
8:30 AM91 °FScattered clouds.10 mph59%29.77 "Hg3 mi
8:00 AM90 °FScattered clouds.9 mph63%29.77 "Hg2 mi
7:30 AM88 °FHaze.8 mph62%29.77 "Hg2 mi
7:00 AM88 °FHaze.6 mph62%29.74 "Hg2 mi
6:30 AM86 °FHaze.8 mph66%29.74 "Hg2 mi
6:00 AM86 °FHaze.14 mph66%29.74 "Hg2 mi
5:30 AM86 °FHaze.9 mph66%29.71 "Hg2 mi
5:00 AM86 °FHaze.6 mph66%29.71 "Hg2 mi
4:30 AM88 °FHaze.10 mph62%29.71 "Hg2 mi
4:00 AM88 °FHaze.9 mph66%29.68 "Hg2 mi
3:30 AM88 °FHaze.12 mph66%29.68 "Hg2 mi
3:00 AM88 °FPassing clouds.12 mph62%29.68 "Hg2 mi
2:30 AM88 °FPassing clouds.12 mph62%29.68 "Hg2 mi
2:00 AM90 °FPassing clouds.9 mph59%29.68 "Hg2 mi
1:30 AM90 °FPassing clouds.13 mph59%29.68 "Hg2 mi
1:00 AM90 °FPassing clouds.9 mph59%29.68 "Hg2 mi
12:30 AM91 °FPassing clouds.9 mph56%29.68 "Hg2 mi
12:00 AM90 °FPassing clouds.7 mph59%29.68 "Hg2 mi
11:30 PM
Mon, May 30
91 °FPassing clouds.7 mph56%29.68 "Hg2 mi
11:00 PM90 °FPassing clouds.7 mph59%29.68 "Hg2 mi
10:30 PM90 °FSmoke.6 mph63%29.65 "Hg2 mi
10:00 PM88 °FSmoke.7 mph70%29.65 "Hg2 mi
9:30 PM90 °FSmoke.7 mph67%29.65 "Hg2 mi
9:00 PM93 °FSmoke.9 mph59%29.65 "Hg2 mi
8:30 PM93 °FPassing clouds.9 mph59%29.62 "Hg2 mi
8:00 PM95 °FPassing clouds.12 mph56%29.62 "Hg2 mi
7:30 PM95 °FScattered clouds.14 mph56%29.59 "Hg2 mi
7:00 PM99 °FScattered clouds.13 mph50%29.56 "Hg2 mi
6:30 PM100 °FScattered clouds.12 mph45%29.56 "Hg3 mi
6:00 PM104 °FScattered clouds.17 mph40%29.56 "Hg4 mi
5:30 PM106 °FScattered clouds.15 mph34%29.53 "Hg4 mi
4:30 PM109 °FScattered clouds.14 mph25%29.53 "Hg4 mi
3:30 PM109 °FPassing clouds.13 mph25%29.56 "Hg4 mi
3:00 PM108 °FPassing clouds.10 mph26%29.56 "Hg4 mi
2:30 PM108 °FScattered clouds.14 mph28%29.59 "Hg4 mi
2:00 PM108 °FScattered clouds.10 mph28%29.62 "Hg4 mi
1:30 PM106 °FScattered clouds.13 mph32%29.62 "Hg4 mi
1:00 PM102 °FPassing clouds.14 mph35%29.65 "Hg4 mi
12:30 PM102 °FPassing clouds.13 mph37%29.65 "Hg4 mi
12:00 PM100 °FPassing clouds.15 mph40%29.65 "Hg4 mi
11:30 AM99 °FPassing clouds.10 mph44%29.68 "Hg4 mi
11:00 AM97 °FScattered clouds.14 mph47%29.68 "Hg3 mi
Weather by CustomWeather, © 2016

See weather overviewHow to use our weather pages